period_start,C,m1,H,J0,J1,J2,J3,J4,J5,JA,JB,JC,JD,JJ,JK,JN,#
2015-04-24 00:00:05,0.06,4.55,0.00,23.56,26.98,29.93,4.77,26.98,1017.60,2031.99,1986.98,2268.01,2452.10,350.09,347.30,30.44,0000 0000 0000 0000 000000
2015-04-24 00:05:06,0.08,4.55,0.00,23.53,27.00,29.93,4.80,26.97,1017.59,2031.98,1986.24,2267.79,2451.91,350.01,346.89,30.47,0000 0000 0000 0000 000000
2015-04-24 00:10:07,0.11,4.55,0.00,23.48,27.00,29.93,4.82,27.11,1017.59,2031.99,1985.82,2267.07,2451.16,349.69,347.22,30.50,0000 0000 0000 0000 000000
2015-04-24 00:15:09,0.04,4.55,0.00,23.55,27.00,29.93,4.80,26.89,1017.58,2031.99,1985.05,2266.98,2451.00,350.42,347.81,30.53,0000 0000 0000 0000 000000
2015-04-24 00:20:10,0.14,4.56,0.00,23.44,27.00,29.94,4.83,26.92,1017.55,2031.98,1984.55,2266.35,2450.47,351.08,348.45,30.55,0000 0000 0000 0000 000000
2015-04-24 00:25:12,0.03,4.56,0.00,23.25,27.00,29.95,4.78,26.89,1017.54,2031.98,1983.91,2266.00,2450.00,349.39,347.14,30.58,0000 0000 0000 0000 000000
2015-04-24 00:30:13,0.16,4.56,0.00,23.14,27.00,29.97,4.78,27.00,1017.45,2031.98,1983.07,2265.37,2449.40,349.69,347.55,30.61,0000 0000 0000 0000 000000
2015-04-24 00:35:14,0.05,4.56,0.00,23.09,27.00,29.93,4.79,27.09,1017.23,2031.98,1982.64,2264.97,2448.95,349.90,347.63,30.64,0000 0000 0000 0000 000000
2015-04-24 00:40:16,0.13,4.57,0.00,23.30,27.00,29.87,4.85,27.04,1017.14,2031.96,1981.89,2264.13,2448.11,350.49,348.01,30.67,0000 0000 0000 0000 000000
2015-04-24 00:45:17,0.05,4.57,0.00,23.54,27.00,29.88,4.73,26.99,1017.12,2031.98,1981.13,2264.00,2448.00,349.97,347.20,30.70,0000 0000 0000 0000 000000
2015-04-24 00:50:18,0.06,4.57,0.00,23.62,27.00,29.85,4.77,26.98,1017.11,2031.98,1980.92,2263.80,2447.50,350.31,347.52,30.73,0000 0000 0000 0000 000000
2015-04-24 00:55:19,0.11,4.58,0.00,23.67,27.00,29.88,4.76,26.99,1017.11,2031.98,1980.14,2263.09,2447.02,350.25,347.32,30.76,0000 0000 0000 0000 000000
2015-04-24 01:00:20,0.01,4.58,0.00,23.73,27.00,29.86,4.79,26.87,1017.11,2031.99,1979.97,2263.00,2446.89,350.65,347.57,30.79,0000 0000 0000 0000 000000
2015-04-24 01:05:21,0.13,4.58,0.00,23.64,27.01,29.86,4.86,27.08,1017.11,2031.98,1979.25,2262.69,2446.16,350.54,347.59,30.82,0000 0000 0000 0000 000000
2015-04-24 01:10:22,0.04,4.58,0.00,23.38,27.02,29.95,4.82,27.07,1017.09,2031.97,1978.98,2262.04,2445.97,350.17,347.47,30.85,0000 0000 0000 0000 000000
2015-04-24 01:15:23,0.10,4.58,0.00,23.29,27.02,29.97,4.77,27.01,1016.91,2031.97,1978.23,2261.92,2445.27,350.44,347.82,30.88,0000 0000 0000 0000 000000
2015-04-24 01:20:25,0.06,4.59,0.00,23.22,27.01,29.93,4.84,26.96,1016.72,2031.95,1977.99,2261.20,2445.00,350.22,347.56,30.91,0000 0000 0000 0000 000000
2015-04-24 01:25:26,0.07,4.59,0.00,23.18,27.00,29.92,4.76,27.18,1016.64,2031.92,1977.29,2261.00,2444.53,349.63,347.44,30.94,0000 0000 0000 0000 000000
2015-04-24 01:30:27,0.01,4.59,0.00,23.42,27.00,29.89,4.76,27.18,1016.63,2031.87,1976.99,2260.84,2444.02,349.64,347.02,30.96,0000 0000 0000 0000 000000
2015-04-24 01:35:28,0.12,4.59,0.00,23.63,27.00,29.90,4.78,27.13,1016.62,2031.86,1976.47,2260.13,2443.95,349.81,346.81,30.99,0000 0000 0000 0000 000000
2015-04-24 01:40:30,0.04,4.59,0.00,23.69,27.00,29.87,4.78,27.07,1016.63,2031.85,1976.00,2259.99,2443.19,349.93,346.95,31.02,0000 0000 0000 0000 000000
2015-04-24 01:45:31,0.10,4.60,0.00,23.68,27.00,29.90,4.77,27.10,1016.62,2031.87,1975.36,2259.71,2443.00,350.33,346.95,31.05,0000 0000 0000 0000 000000
2015-04-24 01:50:32,0.12,4.60,0.00,23.63,27.00,29.88,4.71,27.00,1016.62,2031.89,1974.66,2259.03,2442.47,349.82,346.90,31.08,0000 0000 0000 0000 000000
2015-04-24 01:55:33,0.11,4.60,0.00,23.50,27.02,29.90,4.76,27.10,1016.61,2031.89,1973.85,2258.56,2441.95,350.16,347.21,31.11,0000 0000 0000 0000 000000
2015-04-24 02:00:34,0.11,4.61,0.00,23.39,27.02,29.94,4.76,26.96,1016.55,2031.95,1973.02,2258.01,2441.23,350.29,347.37,31.14,0000 0000 0000 0000 000000
2015-04-24 02:05:36,0.07,4.61,0.00,23.32,27.02,29.97,4.77,26.98,1016.57,2031.87,1972.19,2257.75,2440.99,350.05,347.18,31.17,0000 0000 0000 0000 000000
2015-04-24 02:10:37,0.10,4.61,0.00,23.26,27.02,29.98,4.82,27.02,1016.56,2031.94,1971.91,2257.06,2440.47,349.70,347.19,31.20,0000 0000 0000 0000 000000
2015-04-24 02:15:38,0.06,4.62,0.00,23.21,27.00,29.95,4.72,26.99,1016.48,2031.95,1971.11,2256.99,2440.01,349.52,346.94,31.23,0000 0000 0000 0000 000000
2015-04-24 02:20:40,0.04,4.62,0.00,23.34,27.00,29.91,4.74,26.94,1016.30,2031.98,1970.97,2256.71,2439.98,350.28,347.59,31.26,0000 0000 0000 0000 000000
2015-04-24 02:25:41,0.12,4.62,0.00,23.63,27.00,29.88,4.75,27.03,1016.23,2031.98,1970.36,2256.10,2439.42,350.28,346.87,31.29,0000 0000 0000 0000 000000
2015-04-24 02:30:42,0.02,4.62,0.00,23.71,27.00,29.85,4.75,26.94,1016.15,2031.98,1970.00,2256.00,2439.01,350.30,347.06,31.32,0000 0000 0000 0000 000000
2015-04-24 02:35:43,0.09,4.62,0.00,23.68,27.01,29.88,4.82,27.19,1016.14,2031.98,1969.40,2255.74,2438.77,350.41,347.24,31.35,0000 0000 0000 0000 000000
2015-04-24 02:40:44,0.08,4.63,0.00,23.54,27.02,29.89,4.77,27.05,1016.15,2031.97,1968.91,2255.03,2438.03,349.74,346.59,31.37,0000 0000 0000 0000 000000
2015-04-24 02:45:46,0.05,4.63,0.00,23.41,27.02,29.92,4.80,27.27,1016.13,2031.97,1968.12,2254.98,2437.96,350.16,347.38,31.40,0000 0000 0000 0000 000000
2015-04-24 02:50:47,0.12,4.63,0.00,23.37,27.02,29.95,4.75,26.95,1016.13,2031.97,1967.82,2254.35,2437.33,350.15,347.19,31.43,0000 0000 0000 0000 000000
2015-04-24 02:55:48,0.05,4.63,0.00,23.32,27.02,29.95,4.77,27.11,1016.13,2031.98,1967.07,2254.01,2437.01,350.12,347.40,31.46,0000 0000 0000 0000 000000
2015-04-24 03:00:49,0.07,4.63,0.00,23.25,27.02,29.95,4.76,27.03,1016.12,2031.97,1966.57,2253.89,2436.77,349.32,346.50,31.49,0000 0000 0000 0000 000000
2015-04-24 03:05:50,0.11,4.64,0.00,23.37,27.01,29.89,4.83,27.01,1016.08,2031.97,1966.01,2253.20,2436.07,350.32,347.40,31.52,0000 0000 0000 0000 000000
2015-04-24 03:10:52,0.02,4.64,0.00,23.65,27.01,29.80,4.76,27.16,1016.01,2031.98,1965.82,2253.00,2435.99,350.30,347.19,31.55,0000 0000 0000 0000 000000
2015-04-24 03:15:53,0.08,4.64,0.00,23.72,27.02,29.83,4.76,26.99,1015.90,2031.98,1965.06,2252.94,2435.59,349.79,346.53,31.58,0000 0000 0000 0000 000000
2015-04-24 03:20:54,0.11,4.64,0.00,23.70,27.02,29.86,4.75,27.02,1015.85,2031.99,1964.73,2252.26,2435.02,350.22,346.83,31.61,0000 0000 0000 0000 000000
2015-04-24 03:25:55,0.04,4.65,0.00,23.54,27.02,29.92,4.77,27.02,1015.80,2031.98,1964.02,2252.00,2434.87,350.07,347.03,31.64,0000 0000 0000 0000 000000
2015-04-24 03:30:57,0.14,4.65,0.00,23.43,27.02,29.93,4.81,26.98,1015.86,2031.98,1963.38,2251.60,2434.14,350.27,347.34,31.67,0000 0000 0000 0000 000000
2015-04-24 03:35:58,0.05,4.65,0.00,23.40,27.02,29.93,4.73,27.13,1016.02,2031.96,1962.84,2251.02,2433.94,350.06,346.96,31.70,0000 0000 0000 0000 000000
2015-04-24 03:40:59,0.09,4.65,0.00,23.35,27.02,29.94,4.74,27.14,1016.01,2031.98,1962.06,2250.95,2433.22,349.51,346.73,31.73,0000 0000 0000 0000 000000
2015-04-24 03:46:01,0.07,4.66,0.00,23.28,27.02,29.93,4.86,26.94,1015.93,2031.99,1961.88,2250.33,2433.00,350.49,347.72,31.76,0000 0000 0000 0000 000000
2015-04-24 03:51:02,0.07,4.66,0.00,23.31,27.02,29.89,4.72,26.92,1015.94,2031.98,1961.09,2250.01,2432.89,349.76,346.79,31.78,0000 0000 0000 0000 000000
2015-04-24 03:56:04,0.04,4.66,0.00,23.57,27.02,29.85,4.74,27.01,1015.99,2031.97,1960.96,2249.98,2432.15,350.55,347.35,31.81,0000 0000 0000 0000 000000
2015-04-24 04:01:05,0.11,4.66,0.00,23.72,27.02,29.84,4.83,27.06,1016.02,2031.99,1960.40,2249.46,2432.00,349.79,346.32,31.84,0000 0000 0000 0000 000000
2015-04-24 04:06:06,0.03,4.66,0.00,23.74,27.02,29.87,4.76,27.00,1015.93,2031.99,1959.98,2249.01,2431.89,349.64,346.34,31.87,0000 0000 0000 0000 000000
2015-04-24 04:11:08,0.09,4.67,0.00,23.60,27.02,29.91,4.71,27.02,1015.77,2031.98,1959.39,2248.94,2431.20,349.82,346.46,31.90,0000 0000 0000 0000 000000
2015-04-24 04:16:09,0.08,4.67,0.00,23.47,27.04,29.93,4.75,26.98,1015.81,2031.97,1958.92,2248.22,2431.00,350.33,347.19,31.93,0000 0000 0000 0000 000000
2015-04-24 04:21:10,0.09,4.67,0.00,23.45,27.04,29.94,4.72,26.94,1015.68,2031.97,1958.12,2248.00,2430.60,349.77,346.62,31.96,0000 0000 0000 0000 000000
2015-04-24 04:26:11,0.06,4.67,0.00,23.39,27.04,29.93,4.75,27.01,1015.64,2031.98,1957.81,2247.81,2430.03,349.88,346.64,31.99,0000 0000 0000 0000 000000
2015-04-24 04:31:12,0.09,4.68,0.00,23.33,27.04,29.93,4.79,26.97,1015.66,2031.97,1957.06,2247.08,2429.93,350.32,347.27,32.02,0000 0000 0000 0000 000000
2015-04-24 04:36:14,0.06,4.68,0.00,23.30,27.03,29.93,4.75,26.95,1015.64,2031.98,1956.76,2247.00,2429.31,349.39,346.41,32.05,0000 0000 0000 0000 000000
2015-04-24 04:41:15,0.05,4.68,0.00,23.28,27.02,29.92,4.76,26.90,1015.64,2031.97,1956.05,2246.85,2429.00,349.57,346.70,32.08,0000 0000 0000 0000 000000
2015-04-24 04:46:16,0.07,4.68,0.00,23.52,27.02,29.87,4.72,26.91,1015.64,2031.98,1955.96,2246.20,2428.92,350.05,347.03,32.11,0000 0000 0000 0000 000000
2015-04-24 04:51:17,0.09,4.69,0.00,23.71,27.02,29.85,4.80,26.91,1015.64,2031.99,1955.25,2246.00,2428.21,350.27,346.94,32.14,0000 0000 0000 0000 000000
2015-04-24 04:56:19,0.02,4.69,0.00,23.68,27.03,29.87,4.72,26.94,1015.62,2031.99,1954.96,2245.85,2428.00,349.99,346.69,32.17,0000 0000 0000 0000 000000
2015-04-24 05:01:20,0.14,4.69,0.00,23.58,27.05,29.90,4.73,26.89,1015.60,2031.99,1954.20,2245.13,2427.76,349.61,346.35,32.19,0000 0000 0000 0000 000000
2015-04-24 05:06:22,0.05,4.69,0.00,23.46,27.05,29.92,4.74,26.84,1015.61,2031.99,1953.83,2244.99,2427.06,350.08,347.23,32.22,0000 0000 0000 0000 000000
2015-04-24 05:11:23,0.10,4.69,0.00,23.44,27.05,29.93,4.86,27.02,1015.63,2031.99,1953.08,2244.55,2426.91,350.14,346.97,32.25,0000 0000 0000 0000 000000
2015-04-24 05:16:25,0.09,4.70,0.00,23.41,27.05,29.94,4.79,26.89,1015.63,2031.99,1952.69,2244.02,2426.18,349.85,346.76,32.28,0000 0000 0000 0000 000000
2015-04-24 05:21:26,0.03,4.70,0.00,23.36,27.05,29.90,4.75,26.85,1015.63,2031.99,1952.03,2243.96,2426.00,349.55,346.54,32.31,0000 0000 0000 0000 000000
2015-04-24 05:26:28,0.14,4.70,0.00,23.32,27.05,29.90,4.85,26.95,1015.46,2031.99,1951.57,2243.23,2425.56,350.56,347.24,32.34,0000 0000 0000 0000 000000
2015-04-24 05:31:29,0.03,4.70,0.00,23.30,27.04,29.91,4.85,27.03,1015.24,2031.99,1951.00,2243.00,2425.02,350.51,347.36,32.37,0000 0000 0000 0000 000000
2015-04-24 05:36:30,0.07,4.71,0.00,23.30,27.03,29.92,4.80,27.01,1015.17,2031.99,1950.45,2242.85,2424.93,350.28,347.19,32.40,0000 0000 0000 0000 000000
2015-04-24 05:41:32,0.10,4.71,0.00,23.45,27.02,29.87,4.80,26.89,1015.15,2031.99,1950.00,2242.18,2424.30,350.29,346.89,32.43,0000 0000 0000 0000 000000
2015-04-24 05:46:33,0.05,4.71,0.00,23.70,27.02,29.82,4.74,26.94,1015.15,2031.99,1949.56,2242.00,2424.00,350.64,347.11,32.46,0000 0000 0000 0000 000000
2015-04-24 05:51:34,0.05,4.71,0.00,23.72,27.03,29.87,4.78,27.00,1015.15,2031.99,1948.98,2241.79,2423.80,350.71,347.05,32.49,0000 0000 0000 0000 000000
2015-04-24 05:56:36,0.14,4.72,0.00,23.55,27.05,29.89,4.70,26.99,1015.15,2031.99,1948.22,2241.05,2423.05,350.00,346.54,32.52,0000 0000 0000 0000 000000
2015-04-24 06:01:37,0.01,4.72,0.00,23.50,27.05,29.91,4.73,26.92,1015.15,2031.99,1947.86,2240.99,2422.86,349.69,346.39,32.55,0000 0000 0000 0000 000000
2015-04-24 06:06:38,0.16,4.72,0.00,23.48,27.05,29.90,4.75,26.92,1015.15,2031.99,1947.06,2240.29,2422.08,349.91,346.49,32.58,0000 0000 0000 0000 000000
2015-04-24 06:11:40,0.06,4.72,0.00,23.42,27.05,29.92,4.82,27.18,1015.12,2031.99,1946.49,2240.00,2421.88,350.00,346.57,32.60,0000 0000 0000 0000 000000
2015-04-24 06:16:41,0.10,4.73,0.00,23.39,27.05,29.91,4.83,26.98,1015.09,2031.98,1945.99,2239.61,2421.15,350.76,347.57,32.63,0000 0000 0000 0000 000000
2015-04-24 06:21:42,0.08,4.73,0.00,23.37,27.04,29.91,4.81,26.94,1015.13,2031.99,1945.38,2239.04,2420.99,350.41,347.40,32.66,0000 0000 0000 0000 000000
2015-04-24 06:26:43,0.04,4.73,0.00,23.33,27.03,29.91,4.83,27.00,1015.15,2031.99,1944.91,2238.99,2420.49,350.35,347.23,32.69,0000 0000 0000 0000 000000
2015-04-24 06:31:44,0.11,4.73,0.00,23.32,27.02,29.90,4.76,26.98,1015.13,2031.98,1944.09,2238.61,2420.01,349.94,346.71,32.72,0000 0000 0000 0000 000000
2015-04-24 06:36:46,0.10,4.74,0.00,23.31,27.02,29.89,4.78,26.99,1014.96,2031.99,1943.54,2238.03,2419.72,349.87,346.50,32.75,0000 0000 0000 0000 000000
2015-04-24 06:41:47,0.03,4.74,0.00,23.29,27.02,29.89,4.74,27.10,1014.69,2031.99,1943.01,2237.97,2419.04,349.74,346.71,32.78,0000 0000 0000 0000 000000
2015-04-24 06:46:48,0.12,4.74,0.00,23.31,27.01,29.87,4.74,27.07,1014.68,2031.99,1942.42,2237.35,2418.95,349.85,346.35,32.81,0000 0000 0000 0000 000000
2015-04-24 06:51:49,0.06,4.74,0.00,23.51,27.00,29.83,4.71,26.97,1014.67,2031.99,1941.99,2237.01,2418.21,349.94,346.04,32.84,0000 0000 0000 0000 000000
2015-04-24 06:56:50,0.08,4.75,0.00,23.73,27.00,29.80,4.69,26.94,1014.66,2031.99,1941.34,2236.78,2417.99,349.88,345.92,32.87,0000 0000 0000 0000 000000
2015-04-24 07:01:51,0.09,4.75,0.00,23.76,27.01,29.83,4.70,27.05,1014.67,2031.99,1940.86,2236.05,2417.56,349.65,345.77,32.90,0000 0000 0000 0000 000000
2015-04-24 07:06:53,0.07,4.75,0.00,23.62,27.02,29.85,4.79,26.92,1014.66,2031.99,1940.05,2235.97,2417.02,350.23,346.75,32.93,0000 0000 0000 0000 000000
2015-04-24 07:11:54,0.16,4.75,0.00,23.55,27.02,29.86,4.69,26.98,1014.68,2031.99,1939.45,2235.21,2416.53,349.93,346.31,32.96,0000 0000 0000 0000 000000
2015-04-24 07:16:56,0.02,4.76,0.00,23.54,27.02,29.90,4.78,26.90,1014.68,2031.99,1938.92,2234.99,2416.01,350.55,346.80,32.98,0000 0000 0000 0000 000000
2015-04-24 07:21:57,0.13,4.76,0.00,23.51,27.02,29.90,4.75,27.06,1014.67,2031.99,1938.08,2234.50,2415.75,349.62,346.24,33.01,0000 0000 0000 0000 000000
2015-04-24 07:26:58,0.09,4.76,0.00,23.47,27.02,29.89,4.74,26.95,1014.67,2031.99,1937.53,2234.01,2415.05,349.83,346.43,33.04,0000 0000 0000 0000 000000
2015-04-24 07:32:00,0.08,4.77,0.00,23.47,27.02,29.89,4.73,26.96,1014.68,2031.99,1936.98,2233.66,2414.69,350.52,347.02,33.07,0000 0000 0000 0000 000000
2015-04-24 07:37:01,0.11,4.77,0.00,23.46,27.02,29.88,4.80,27.07,1014.70,2031.99,1936.27,2233.05,2414.04,349.91,346.44,33.10,0000 0000 0000 0000 000000
2015-04-24 07:42:02,0.02,4.77,0.00,23.44,27.02,29.88,4.78,26.82,1014.72,2031.99,1935.89,2232.97,2413.93,349.96,346.43,33.13,0000 0000 0000 0000 000000
2015-04-24 07:47:04,0.16,4.77,0.00,23.45,27.01,29.88,4.80,26.88,1014.74,2031.99,1935.09,2232.27,2413.19,349.63,346.16,33.16,0000 0000 0000 0000 000000
2015-04-24 07:52:05,0.06,4.78,0.00,23.45,27.00,29.86,4.79,26.94,1014.74,2031.99,1934.53,2232.00,2412.96,350.13,346.72,33.19,0000 0000 0000 0000 000000
2015-04-24 07:57:07,0.10,4.78,0.00,23.46,27.00,29.86,4.73,26.82,1014.69,2031.99,1933.96,2231.61,2412.24,349.71,346.38,33.22,0000 0000 0000 0000 000000
2015-04-24 08:02:08,0.09,4.78,0.00,23.49,27.00,29.86,4.70,26.88,1014.67,2031.99,1933.15,2231.02,2411.98,349.58,346.05,33.25,0000 0000 0000 0000 000000
2015-04-24 08:07:09,0.08,4.78,0.00,23.50,27.00,29.84,4.73,26.82,1014.67,2031.99,1932.75,2230.86,2411.37,349.81,346.26,33.28,0000 0000 0000 0000 000000
2015-04-24 08:12:11,0.10,4.79,0.00,23.51,27.00,29.84,4.72,26.86,1014.66,2031.99,1932.04,2230.12,2411.00,350.21,346.64,33.31,0000 0000 0000 0000 000000
2015-04-24 08:17:12,0.09,4.79,0.00,23.53,27.00,29.84,4.72,27.00,1014.66,2031.99,1931.34,2229.97,2410.44,349.76,345.91,33.34,0000 0000 0000 0000 000000
2015-04-24 08:22:13,0.09,4.79,0.00,23.52,26.99,29.85,4.73,26.93,1014.66,2031.99,1930.92,2229.31,2410.01,349.82,346.22,33.37,0000 0000 0000 0000 000000
2015-04-24 08:27:14,0.08,4.80,0.00,23.53,26.99,29.84,4.73,26.99,1014.66,2031.99,1930.12,2229.00,2409.70,349.62,345.99,33.39,0000 0000 0000 0000 000000
2015-04-24 08:32:16,0.12,4.80,0.00,23.55,26.98,29.84,4.79,26.83,1014.66,2031.99,1929.59,2228.63,2409.04,349.78,346.31,33.42,0000 0000 0000 0000 000000
2015-04-24 08:37:17,0.07,4.80,0.00,23.52,26.98,29.84,4.74,26.84,1014.62,2031.99,1928.97,2228.03,2408.67,350.28,346.66,33.45,0000 0000 0000 0000 000000
2015-04-24 08:42:18,0.08,4.81,0.00,23.50,26.97,29.85,4.80,26.81,1014.62,2031.99,1928.25,2227.92,2408.03,349.92,346.10,33.48,0000 0000 0000 0000 000000
2015-04-24 08:47:19,0.10,4.81,0.00,23.50,26.97,29.85,4.77,26.89,1014.60,2031.99,1927.80,2227.15,2407.92,349.97,346.48,33.51,0000 0000 0000 0000 000000
2015-04-24 08:52:20,0.08,4.81,0.00,23.48,26.97,29.85,4.82,26.88,1014.60,2031.99,1927.06,2227.00,2407.15,349.94,346.51,33.54,0000 0000 0000 0000 000000
2015-04-24 08:57:21,0.08,4.81,0.00,23.49,26.97,29.84,4.76,26.79,1014.52,2031.99,1926.64,2226.71,2406.98,350.06,346.08,33.57,0000 0000 0000 0000 000000
2015-04-24 09:02:22,0.10,4.82,0.00,23.51,26.97,29.84,4.75,26.82,1014.43,2031.99,1926.01,2226.04,2406.50,350.11,346.09,33.60,0000 0000 0000 0000 000000
2015-04-24 09:07:24,0.07,4.82,0.00,23.50,26.97,29.84,4.72,26.86,1014.31,2032.00,1925.41,2225.95,2406.00,349.90,346.21,33.63,0000 0000 0000 0000 000000
2015-04-24 09:12:25,0.11,4.82,0.00,23.47,26.97,29.83,4.73,26.79,1014.25,2032.00,1924.90,2225.17,2405.57,349.65,346.19,33.66,0000 0000 0000 0000 000000
2015-04-24 09:17:26,0.07,4.82,0.00,23.49,26.97,29.82,4.74,26.83,1014.41,2032.00,1924.09,2225.00,2405.02,350.01,346.29,33.69,0000 0000 0000 0000 000000
2015-04-24 09:22:27,0.08,4.82,0.00,23.47,26.95,29.81,4.70,26.71,1014.63,2032.00,1923.74,2224.67,2404.87,349.95,346.46,33.72,0000 0000 0000 0000 000000
2015-04-24 09:27:29,0.10,4.83,0.00,23.46,26.95,29.81,4.82,26.77,1014.61,2032.00,1923.03,2224.03,2404.12,350.08,346.41,33.75,0000 0000 0000 0000 000000
2015-04-24 09:32:30,0.05,4.83,0.00,23.48,26.95,29.79,4.73,26.82,1014.61,2032.00,1922.51,2223.99,2403.99,349.99,346.67,33.78,0000 0000 0000 0000 000000
2015-04-24 09:37:32,0.11,4.83,0.00,23.48,26.95,29.79,4.76,26.94,1014.51,2032.00,1921.99,2223.43,2403.45,350.12,346.52,33.80,0000 0000 0000 0000 000000
2015-04-24 09:42:33,0.08,4.84,0.00,23.46,26.95,29.78,4.71,26.85,1014.36,2032.00,1921.30,2223.00,2403.00,349.88,346.40,33.83,0000 0000 0000 0000 000000
2015-04-24 09:47:34,0.03,4.84,0.00,23.47,26.94,29.79,4.67,26.72,1014.22,2032.03,1920.94,2222.87,2402.83,349.61,345.96,33.86,0000 0000 0000 0000 000000
2015-04-24 09:52:35,0.15,4.84,0.00,23.47,26.92,29.78,4.69,26.76,1014.22,2032.02,1920.13,2222.11,2402.08,349.98,346.18,33.89,0000 0000 0000 0000 000000
2015-04-24 09:57:36,0.02,4.84,0.00,23.44,26.92,29.78,4.74,26.82,1014.19,2032.03,1919.85,2222.00,2401.94,349.57,345.80,33.92,0000 0000 0000 0000 000000
2015-04-24 10:02:37,0.14,4.85,0.00,23.46,26.92,29.78,4.73,26.85,1014.18,2032.01,1919.07,2221.55,2401.18,349.48,346.03,33.95,0000 0000 0000 0000 000000
2015-04-24 10:07:38,0.08,4.85,0.00,23.47,26.92,29.77,4.76,26.68,1014.20,2032.03,1918.60,2221.01,2400.98,349.62,345.78,33.98,0000 0000 0000 0000 000000
2015-04-24 10:12:39,0.05,4.85,0.00,23.45,26.92,29.77,4.81,26.82,1014.19,2032.03,1918.01,2220.92,2400.40,350.56,346.96,34.01,0000 0000 0000 0000 000000
2015-04-24 10:17:40,0.13,4.85,0.00,23.45,26.91,29.75,4.78,26.95,1014.18,2032.03,1917.48,2220.21,2400.02,349.78,346.06,34.04,0000 0000 0000 0000 000000
2015-04-24 10:22:42,0.02,4.86,0.00,23.47,26.90,29.71,4.72,26.82,1014.18,2032.02,1916.99,2220.00,2399.91,350.10,346.24,34.07,0000 0000 0000 0000 000000
2015-04-24 10:27:43,0.12,4.86,0.00,23.46,26.90,29.68,4.64,26.78,1014.18,2032.05,1916.29,2219.82,2399.16,349.71,346.15,34.10,0000 0000 0000 0000 000000
2015-04-24 10:32:44,0.08,4.86,0.00,23.46,26.90,29.66,4.78,26.82,1014.18,2032.07,1915.88,2219.07,2398.94,350.16,346.64,34.13,0000 0000 0000 0000 000000
2015-04-24 10:37:46,0.09,4.86,0.00,23.49,26.90,29.64,4.78,26.84,1014.17,2032.03,1915.07,2218.93,2398.19,350.22,346.21,34.16,0000 0000 0000 0000 000000
2015-04-24 10:42:47,0.09,4.87,0.00,23.46,26.90,29.62,4.72,26.77,1014.17,2032.02,1914.70,2218.29,2398.00,349.25,345.75,34.19,0000 0000 0000 0000 000000
2015-04-24 10:47:48,0.08,4.87,0.00,23.47,26.90,29.62,4.78,27.09,1014.18,2032.05,1914.03,2218.00,2397.46,349.79,346.12,34.21,0000 0000 0000 0000 000000
2015-04-24 10:52:49,0.09,4.87,0.00,23.48,26.90,29.63,4.81,26.83,1014.18,2032.04,1913.49,2217.77,2397.01,349.83,346.02,34.24,0000 0000 0000 0000 000000
2015-04-24 10:57:51,0.07,4.87,0.00,23.50,26.90,29.61,4.70,26.77,1014.18,2032.03,1913.00,2217.08,2396.72,349.94,346.17,34.27,0000 0000 0000 0000 000000
2015-04-24 11:02:52,0.08,4.88,0.00,23.56,26.90,29.61,4.77,26.78,1014.18,2032.02,1912.34,2216.98,2396.04,350.02,346.09,34.30,0000 0000 0000 0000 000000
2015-04-24 11:07:53,0.09,4.88,0.00,23.62,26.90,29.62,4.79,26.70,1014.18,2032.03,1911.95,2216.35,2395.83,350.23,346.36,34.33,0000 0000 0000 0000 000000
2015-04-24 11:12:54,0.10,4.88,0.00,23.63,26.90,29.62,4.77,26.91,1014.18,2032.02,1911.18,2216.01,2395.14,349.77,345.87,34.36,0000 0000 0000 0000 000000
2015-04-24 11:17:56,0.06,4.88,0.00,23.62,26.91,29.64,4.81,26.86,1014.18,2032.02,1910.72,2215.84,2394.98,350.21,346.17,34.39,0000 0000 0000 0000 000000
2015-04-24 11:22:57,0.12,4.89,0.00,23.58,26.91,29.65,4.72,26.79,1014.18,2032.04,1910.03,2215.09,2394.34,349.73,345.99,34.42,0000 0000 0000 0000 000000
2015-04-24 11:27:59,0.04,4.89,0.00,23.53,26.92,29.66,4.74,26.80,1014.18,2032.01,1909.63,2214.99,2394.01,350.35,346.59,34.45,0000 0000 0000 0000 000000
2015-04-24 11:33:00,0.10,4.89,0.00,23.51,26.92,29.70,4.78,26.88,1014.15,2032.01,1909.01,2214.54,2393.72,350.75,347.08,34.48,0000 0000 0000 0000 000000
2015-04-24 11:38:01,0.11,4.90,0.00,23.48,26.92,29.79,4.78,26.88,1014.16,2032.03,1908.30,2214.02,2393.04,350.15,346.85,34.51,0000 0000 0000 0000 000000
2015-04-24 11:43:02,0.01,4.90,0.00,23.50,26.92,29.80,4.81,26.86,1014.17,2032.01,1907.99,2213.97,2392.95,349.74,346.09,34.54,0000 0000 0000 0000 000000
2015-04-24 11:48:04,0.17,4.90,0.00,23.72,26.92,29.77,4.73,26.84,1014.16,2032.02,1907.43,2213.27,2392.22,350.24,346.26,34.57,0000 0000 0000 0000 000000
2015-04-24 11:53:05,0.02,4.90,0.00,23.74,26.92,29.66,4.77,26.87,1014.14,2032.02,1906.98,2213.00,2391.99,349.87,346.01,34.60,0000 0000 0000 0000 000000
2015-04-24 11:58:07,0.12,4.90,0.00,23.53,26.94,29.64,4.74,26.78,1014.15,2032.02,1906.29,2212.78,2391.60,350.14,346.55,34.62,0000 0000 0000 0000 000000
2015-04-24 12:03:08,0.08,4.91,0.00,23.43,26.95,29.78,4.68,26.78,1014.11,2032.01,1905.83,2212.06,2391.01,349.76,346.04,34.65,0000 0000 0000 0000 000000
2015-04-24 12:08:09,0.07,4.91,0.00,23.38,26.95,29.87,4.80,26.82,1013.98,2032.00,1905.06,2211.97,2390.63,349.98,346.17,34.68,0000 0000 0000 0000 000000
2015-04-24 12:13:10,0.13,4.91,0.00,23.30,26.95,29.89,4.76,26.75,1013.96,2032.00,1904.60,2211.33,2390.02,349.76,346.18,34.71,0000 0000 0000 0000 000000
2015-04-24 12:18:11,0.03,4.92,0.00,23.25,26.95,29.90,4.80,26.78,1013.81,2032.00,1904.02,2211.01,2389.92,350.30,346.73,34.74,0000 0000 0000 0000 000000
2015-04-24 12:23:13,0.10,4.92,0.00,23.19,26.95,29.90,4.89,26.87,1013.74,2032.00,1903.45,2210.84,2389.18,350.56,347.10,34.77,0000 0000 0000 0000 000000
2015-04-24 12:28:14,0.07,4.92,0.00,23.15,26.95,29.87,4.82,26.74,1013.71,2032.00,1903.00,2210.10,2388.99,350.83,347.34,34.80,0000 0000 0000 0000 000000
2015-04-24 12:33:15,0.08,4.92,0.00,23.41,26.95,29.85,4.76,26.85,1013.70,2032.00,1902.45,2209.98,2388.66,350.30,346.55,34.83,0000 0000 0000 0000 000000
2015-04-24 12:38:16,0.08,4.93,0.00,23.57,26.95,29.83,4.66,26.86,1013.69,2032.00,1901.99,2209.55,2388.03,349.55,345.55,34.86,0000 0000 0000 0000 000000
2015-04-24 12:43:17,0.08,4.93,0.00,23.54,26.95,29.83,4.87,26.90,1013.70,2032.00,1901.41,2209.04,2387.94,350.25,346.32,34.89,0000 0000 0000 0000 000000
2015-04-24 12:48:18,0.05,4.93,0.00,23.47,26.95,29.78,4.68,26.98,1013.71,2032.00,1900.96,2208.99,2387.24,349.57,345.84,34.92,0000 0000 0000 0000 000000
2015-04-24 12:53:20,0.12,4.93,0.00,23.32,26.97,29.73,4.78,26.77,1013.70,2032.00,1900.17,2208.47,2386.99,350.32,346.65,34.95,0000 0000 0000 0000 000000
2015-04-24 12:58:22,0.10,4.44,0.00,23.25,26.97,29.90,4.13,23.28,1013.69,2032.53,2111.33,2357.51,2550.57,308.60,303.59,0.00,0000 0000 0000 0000 000002